Blue Canyon, CA

2:15 PM PDT on June 28, 2017 (GMT -0700)
Blue Canyon-Nyack

Weather History for KBLU - December, 2012

Change the Weather History Date:

Wednesday, December 19, 2012

  Actual Average Record
Temperature  
Mean Temperature 27 °F -  
Max Temperature 33 °F 44 °F 66 °F (1954)
Min Temperature 21 °F 32 °F 13 °F (1949)
Degree Days  
Heating Degree Days 38    
Moisture  
Dew Point 4 °F    
Average Humidity 38    
Maximum Humidity 66    
Minimum Humidity 22    
Precipitation  
Precipitation 0.00 in - - ()
Sea Level Pressure  
Sea Level Pressure 30.22 in    
Wind  
Wind Speed 5 mph (SE)    
Max Wind Speed 9 mph    
Max Gust Speed -    
Visibility 10 miles    
Events      
Averages and records for this station are not official NWS values.
T = Trace of Precipitation, MM = Missing Value Source: NWS Daily Summary

Daily Weather History Graph

Daily Weather History Graph

Search for Another Location

Airport or City:

Trip Planner

Search our weather history database for the weather conditions in past years. The results will help you decide how hot, cold, wet, or windy it might be!

Date:

Astronomy

Dec. 19, 2012 Rise Set
Actual Time 7:18 AM PST 4:42 PM PST
Civil Twilight 6:48 AM PST 5:12 PM PST
Nautical Twilight 6:14 AM PST 5:46 PM PST
Astronomical Twilight 5:41 AM PST 6:18 PM PST
Moon 11:32 AM PST (12/19) No Moon Set
Length of Visible Light 10h 24m
Length of Day
9h 24m
Waxing Crescent, 46% of the Moon is Illuminated
Dec 19
Waxing Crescent
Dec 19
First Quarter
Dec 28
Full
Jan 4
Last Quarter
Jan 11
New

Hourly Weather History & Observations

Time (PST) Temp. Windchill Dew Point Humidity Pressure Visibility Wind Dir Wind Speed Gust Speed Precip Events Conditions
12:52 AM 21.0 °F 13.4 °F 3.0 °F 46% 30.12 in 10.0 mi NE 5.8 mph - N/A   Clear
1:52 AM 21.0 °F 12.4 °F 1.0 °F 42% 30.14 in 10.0 mi ENE 6.9 mph - N/A   Clear
2:52 AM 21.9 °F 14.5 °F -0.0 °F 38% 30.17 in 10.0 mi Variable 5.8 mph - N/A   Clear
3:52 AM 21.9 °F 14.5 °F -2.0 °F 35% 30.17 in 10.0 mi NE 5.8 mph - N/A   Clear
4:52 AM 21.9 °F 14.5 °F -2.0 °F 35% 30.18 in 10.0 mi Variable 5.8 mph - N/A   Clear
5:52 AM 23.0 °F 15.8 °F -2.9 °F 32% 30.19 in 10.0 mi Variable 5.8 mph - N/A   Clear
6:52 AM 24.1 °F 18.2 °F -6.0 °F 27% 30.21 in 10.0 mi NE 4.6 mph - N/A   Clear
7:52 AM 21.9 °F - -2.9 °F 34% 30.25 in 10.0 mi Calm Calm - N/A   Clear
8:52 AM 27.0 °F - -4.0 °F 26% 30.27 in 10.0 mi Calm Calm - N/A   Clear
9:52 AM 28.9 °F 25.2 °F -0.9 °F 28% 30.26 in 10.0 mi Variable 3.5 mph - N/A   Clear
10:52 AM 30.9 °F - -0.9 °F 26% 30.26 in 10.0 mi Calm Calm - N/A   Clear
11:52 AM 30.9 °F 24.3 °F -2.9 °F 23% 30.27 in 10.0 mi SSE 6.9 mph - N/A   Clear
12:52 PM 32.0 °F 26.4 °F -2.9 °F 22% 30.25 in 10.0 mi SSW 5.8 mph - N/A   Clear
1:52 PM 33.1 °F 27.7 °F -0.0 °F 24% 30.25 in 10.0 mi South 5.8 mph - N/A   Clear
2:52 PM 32.0 °F 27.5 °F 6.1 °F 34% 30.25 in 10.0 mi South 4.6 mph - N/A   Clear
3:52 PM 30.9 °F - 10.0 °F 42% 30.24 in 10.0 mi Calm Calm - N/A   Clear
4:52 PM 30.0 °F - 10.0 °F 43% 30.25 in 10.0 mi Calm Calm - N/A   Clear
5:52 PM 28.0 °F 24.2 °F 10.0 °F 47% 30.24 in 10.0 mi East 3.5 mph - N/A   Clear
6:52 PM 30.9 °F 26.2 °F 10.9 °F 43% 30.22 in 10.0 mi SE 4.6 mph - N/A   Clear
7:52 PM 32.0 °F 25.6 °F 14.0 °F 48% 30.24 in 10.0 mi SSE 6.9 mph - N/A   Clear
8:52 PM 30.9 °F 23.5 °F 12.9 °F 47% 30.21 in 10.0 mi SE 8.1 mph - N/A   Clear
9:52 PM 30.0 °F 23.2 °F 12.0 °F 47% 30.21 in 10.0 mi SSE 6.9 mph - N/A   Clear
10:52 PM 27.0 °F 18.0 °F 17.1 °F 66% 30.22 in 10.0 mi South 9.2 mph - N/A   Clear
11:52 PM 27.0 °F 18.7 °F 17.1 °F 66% 30.23 in 10.0 mi SSE 8.1 mph - N/A   Clear